Regional Weather Roundup
Issued by NWS

Home | Current Version | Previous Version | Graphics & Text | Print | Product List | Glossary On
Versions: 1 2 3 4 5 6 7 8 9 10 11 12 13 14 15 16 17 18 19 20 21 22 23 24 25 26 27 28 29 30 31 32 33 34 35 36 37 38 39 40 41 42 43 44 45 46 47 48 49 50
000
ASUS45 KABQ 200810
RWRNM
WEATHER ROUNDUP FOR NEW MEXICO
NATIONAL WEATHER SERVICE ALBUQUERQUE NM
200 AM MDT SAT SEP 20 2014

NOTE: "FAIR" MEANS FEW OR NO CLOUDS BELOW 12,000 FEET AGL WITH NO
       SIGNIFICANT WEATHER OR OBSTRUCTIONS TO VISION.

      THIS PRODUCT IS RELEASED AS TWO VERSIONS.  ONE VERSION NEAR
      THE TOP OF THE HOUR CONTAINING PRELIMINARY DATA FROM ALBUQUERQUE
      AND OTHER STATIONS.  A FINAL VERSION WITH ADDITIONAL DATA IS
      ISSUED ABOUT 10 MINUTES AFTER THE HOUR.

NMZ501-503-504-510>518-200900-
NORTHWEST PLATEAU/NORTHCENTRAL MOUNTAINS

CITY           SKY/WX    TMP DP  RH WIND       PRES   REMARKS
FARMINGTON     CLEAR     62  42  47 N6        30.08R
LOS ALAMOS     CLEAR     59  55  88 S7        30.24S
SANTA FE       CLEAR     61  55  81 SE6       30.18S
TAOS           CLEAR     54  41  62 NE7       30.25R
ANGEL FIRE     FOG       47  45  93 CALM      30.34R VSB 1/4

$$
NMZ402-403-502-505>509-200900-
WESTCENTRAL MOUNTAINS/SOUTHWEST MOUNTAINS

CITY           SKY/WX    TMP DP  RH WIND       PRES   REMARKS
GALLUP         CLEAR     54  37  52 CALM      30.18R
GRANTS         CLEAR     48  43  81 CALM      30.20S
SILVER CITY    CLEAR     64  59  82 NW5       30.13S

$$
NMZ407-409-411-412-200900-
SOUTHERN DESERTS

CITY           SKY/WX    TMP DP  RH WIND       PRES   REMARKS
LORDSBURG      FAIR      70  63  78 MISG      30.05R
DEMING         CLEAR     66  64  93 SW5       30.04R
LAS CRUCES     CLEAR     67  64  89 CALM      30.05S
HOLLOMAN AFB   PTCLDY    67  65  96 CALM      30.03R
ALAMOGORDO     CLOUDY    66  63  88 CALM      30.05R
T OR C         CLEAR     67  61  81 NW3       30.06R

$$
NMZ519>523-200900-
CENTRAL VALLEYS/CENTRAL HIGHLANDS

CITY           SKY/WX    TMP DP  RH WIND       PRES   REMARKS
ALBUQUERQUE    PTCLDY    67  57  70 W3        30.12R
DOUBLE EAGLE   CLEAR     59  56  90 S6        30.15S
MORIARTY ARPT  FOG       55  53  94 CALM      30.20R VSB 1/2
CLINES CORNERS FOG       57  56  96 CALM      30.22R VSB 1/4
BELEN          FAIR      62  60  91 S7        30.11R
SOCORRO        FAIR      64  62  91 W6        30.08S

$$
NMZ524>526-539-540-200900-
SOUTHCENTRAL MOUNTAINS

CITY           SKY/WX    TMP DP  RH WIND       PRES   REMARKS
RUIDOSO        CLOUDY    59  57  94 SW3       30.23R

$$
NMZ527>531-200900-
NORTHEAST HIGHLANDS/NORTHEAST PLAINS

CITY           SKY/WX    TMP DP  RH WIND       PRES   REMARKS
LAS VEGAS      CLOUDY    59  59 100 S12       30.21S FOG
RATON          CLOUDY    62  57  83 CALM      30.17R
CLAYTON        PTCLDY    63  60  90 S14       30.09S

$$
NMZ532>537-200900-
EASTCENTRAL PLAINS

CITY           SKY/WX    TMP DP  RH WIND       PRES   REMARKS
TUCUMCARI      CLEAR     64  58  80 S6        30.07R
CANNON AFB     CLOUDY    64 N/A N/A CALM      30.09S
CLOVIS AIRPORT   N/A     64  63  94 CALM      30.11S

$$
NMZ028-029-538-200900-
SOUTHEAST PLAINS

CITY           SKY/WX    TMP DP  RH WIND       PRES   REMARKS
ROSWELL        CLOUDY    68  66  93 N3        30.03S
CARLSBAD       CLOUDY    70  32  24 SE7       29.99S
HOBBS          CLOUDY    68  68 100 SE3       30.03S


$$


USA.gov is the U.S. government's official web portal to all federal, state and local government web resources and services.